Back to catalog

STARLINK-31931

AliveCommunicationsVLEO
NORAD 59864·PAYLOAD·🇺🇸 United States

Launched May 24, 2024 from Cape Canaveral Space Force Station

Loading…

Next Passes (next 24 hours)

TLE

FreshSource: CelesTrak SupGP

Epoch: Sep 14, 2026, 15:21 UTC

1 59864C 24098G   26257.64006944  .00023283  00000+0  84331-3 0  2576
2 59864  43.0002 291.2338 0001321 279.2184 304.1857 15.27566859    14

Track STARLINK-31931 in real time with AllMySat

Download on the App Store